Tracking 27380 objects as of 5-Jun-2023
HD Live streaming from Space Station
objects crossing your sky now

DELTA 1 DEB

Track DELTA 1 DEB now!
10-day predictions


NORAD ID: 7136
Int'l Code: 1973-086DA
Perigee: 1,415.5 km
Apogee: 1,500.7 km
Inclination: 101.5 °
Period: 114.9 minutes
Semi major axis: 7829 km
RCS: 0.0415 m2 (small)
Launch date: November 6, 1973
Source: United States (US)
Launch site: AIR FORCE WESTERN TEST RANGE (AFWTR)

Note: This is SATELLITE DEBRIS
Your satellite tracking list
Your tracking list is empty




NASA's NSSDC Master Catalog

Two Line Element Set (TLE):
1 07136U 73086DA  23156.53132029  .00000206  00000-0  15625-2 0  9992
2 07136 101.4882 148.6572 0054387  82.9695  39.0867 12.53245359262699
Source of the keplerian elements: AFSPC